Dauntless Aviation
Airports Europe Czech Republic
LKPO
PRV

Prerov

Prerov, CZECH REPUBLIC

Airport Info
Suggest Updated Information for this Airport

Location

Latitude / Longitude: 49°25'32"N / 17°24'16"E
  49°25.548'N / 17°24.282'E
  49.4258 / 17.4047

Nearby radio navigation aids

CK PREROV NDB. 63.6° 2.8nm from CK to field.

Runway Information

Runway 06 /24

Dimensions: 8202 x 196 ft.
Surface: ASP
 
Runway 06
Runway 24
Latitude: 49.421419 49.430439
Longitude: 17.389275 17.420478
Elevation: 663 ft. 663 ft.
Runway true heading: 64.6 244.6
 

Instrument Procedures

  Aerodrome Chart

IAPs (Instrument Approach Procedures)

  ILS/DME Rwy 06
  NDB/DME (GPS) or PAR Rwy 06
  NDB (GPS) or PAR Rwy 06
  POLOM 3A

Departure Procedures

  Instrument Departure Chart HLV 1A - 2Z
  Instrument Departure Chart LUTIM 2A - 2Z
  Instrument Departure Chart MORKO 2Z
  Instrument Departure Chart POLOM 3A
Satellite photo at:
Airport distance calculator
From:
Weather Reports

METAR

LKKU
22.6nm SE
LKKU 230600Z 02007KT 9999 BKN038 06/04 Q1015
LKMT
31.3nm NE
LKMT 230600Z 01004KT 3500 BR OVC006 05/04 Q1017 BECMG 5000 BR
LKTB
33.3nm SW
LKTB 230600Z 05006KT 8000 BKN026 06/04 Q1015 NOSIG

TAF

LKMT
31.3nm NE
TAF LKMT 230500Z 2306/2412 VRB02KT 4000 BR OVC004 BECMG 2306/2309 9999 SCT015 BECMG 2317/2320 3000 BR NSC BECMG 2322/2401 02005KT 3000 BR OVC010 BECMG 2401/2404 02011KT 8000 TEMPO 2404/2412 4000 -RADZ BR OVC004
LKTB
33.3nm SW
TAF LKTB 230500Z 2306/2412 07008KT 9999 SCT020 TEMPO 2306/2318 13011KT BKN011 PROB30 TEMPO 2306/2318 OVC006 BECMG 2318/2321 05007KT 9999 BKN017 TEMPO 2321/2412 OVC007
Safelog

 

Dauntless Aviation

© 2007-2017 Dauntless Aviation, all rights reserved
Information provided via PilotNav comes from a variety of official and unofficial data sources. As errors are possible, do not use PilotNav for primary flight planning purposes. Verify any information that you receive via PilotNav with current and canonical charts and other official documents. The material in this database is subject to database copyrights held by Dauntless Aviation and may not be copied without the express permission of Dauntless Aviation - licenses for use of part of all of this data are available for purchase; enquire via the Dauntless Aviation helpdesk. A number of mechanisms and markers exist in the database to protect against and identify infringement / copyright. Automated queries against this website are stictly prohibited, and all activity is logged and analyzed.